This is the latest recevied weather packets stored in our database for station/object LW9ERO-3. If no packets are shown the sender has not sent any weather packets the latest 10 day(s).
| Time | Temp. | Humidity | Pressure | Rain* | Wind** | Luminosity | Snow |
|---|---|---|---|---|---|---|---|
| 1787943243 | 21.11° C | 30% | 1009.9 hPa | 0 mm | - | - | - |
| 1787942703 | 21.11° C | 30% | 1010.1 hPa | 0 mm | - | - | - |
| 1787942163 | 21.67° C | 29% | 1010.1 hPa | 0 mm | - | - | - |
| 1787941623 | 21.67° C | 29% | 1010 hPa | 0 mm | - | - | - |
| 1787941083 | 21.67° C | 29% | 1010 hPa | 0 mm | - | - | - |
| 1787940544 | 21.67° C | 28% | 1010.1 hPa | 0 mm | - | - | - |
| 1787940003 | 21.67° C | 29% | 1010.1 hPa | 0 mm | - | - | - |
| 1787939643 | 21.67° C | 31% | 1010.1 hPa | 0 mm | - | - | - |
| 1787939104 | 21.67° C | 31% | 1010.1 hPa | 0 mm | - | - | - |
| 1787938563 | 21.67° C | 31% | 1010 hPa | 0 mm | - | - | - |
| 1787938024 | 21.67° C | 31% | 1010 hPa | 0 mm | - | - | - |
| 1787937483 | 21.67° C | 31% | 1010.4 hPa | 0 mm | - | - | - |
| 1787936943 | 21.67° C | 34% | 1010.2 hPa | 0 mm | - | - | - |
| 1787936403 | 21.11° C | 35% | 1010.4 hPa | 0 mm | - | - | - |
| 1787936043 | 20.56° C | 35% | 1010.5 hPa | 0 mm | - | - | - |
| 1787935503 | 20.56° C | 35% | 1010.2 hPa | 0 mm | - | - | - |
| 1787934964 | 20.56° C | 36% | 1010.2 hPa | 0 mm | - | - | - |
| 1787934423 | 20.56° C | 37% | 1010.4 hPa | 0 mm | - | - | - |
| 1787933883 | 20° C | 37% | 1010.6 hPa | 0 mm | - | - | - |
| 1787933343 | 20.56° C | 40% | 1010.6 hPa | 0 mm | - | - | - |
| 1787932803 | 20° C | 40% | 1010.7 hPa | 0 mm | - | - | - |
| 1787932444 | 20° C | 40% | 1010.5 hPa | 0 mm | - | - | - |
| 1787931904 | 20° C | 43% | 1010.6 hPa | 0 mm | - | - | - |
| 1787931363 | 20° C | 42% | 1010.7 hPa | 0 mm | - | - | - |
| 1787930823 | 20° C | 43% | 1010.8 hPa | 0 mm | - | - | - |
* Rain latest hour (hover to see other rain measurements)
** Current wind speed in m/s (hover to see current wind gust speed)